Tracking 19847 objects as of 16-Sep-2019
HD Live streaming from Space Station
objects crossing your sky now

MINOTAUR-C DEB

Track MINOTAUR-C DEB now!
10-day predictions


NORAD ID: 42993
Int'l Code: 2017-068G
Perigee: 503.1 km
Apogee: 528.5 km
Inclination: 97.4 °
Period: 94.8 minutes
Semi major axis: 6886 km
RCS: Unknown
Launch date: October 31, 2017
Source: United States (US)
Launch site: AIR FORCE WESTERN TEST RANGE (AFWTR)

Note: This is SATELLITE DEBRIS
aabbcc
Your satellite tracking list
Your tracking list is empty




NASA's NSSDC Master Catalog

Two Line Element Set (TLE):
1 42993U 17068G   19258.86554135 +.00000397 +00000-0 +22126-4 0  9997
2 42993 097.3974 006.2340 0018430 001.1928 358.9347 15.19068394103795
Source of the keplerian elements: AFSPC